#timestamp,LO_Frequency,Hit,StdDev 
1675015215.1,286047004.0,N
1675015216.0,286047004.0,N
1675015235.8,286047001.4,N
1675015255.6,286047002.5,N
1675015275.5,286046999.3,N
1675015295.3,286046998.7,N
1675015315.2,286046998.9,N
1675015335.9,286046999.6,N
1675015355.7,286046998.5,N
1675015375.6,286047000.4,N
1675015395.4,286047000.7,N
1675015415.2,286047000.6,N
1675015435.1,286047001.1,N
1675015436.0,286047001.1,N
1675015455.8,286046998.6,N
1675015475.7,286046998.7,N
1675015495.5,286046997.9,N
1675015515.4,286046995.2,N
1675015535.2,286046995.8,N
1675015555.0,286046995.6,N
1675015555.9,286046995.6,N
1675015575.8,286046995.4,N
1675015595.6,286046995.3,N
1675015615.4,286046993.3,N
1675015635.3,286046996.3,N
1675015655.1,286046994.8,N
1675015675.9,286046993.1,N
1675015695.7,286046992.2,N
1675015715.5,286046992.4,N
1675015735.4,286046994.3,N
1675015755.2,286046993.8,N
1675015775.0,286046992.1,N
1675015775.9,286046992.1,N
1675015795.8,286046993.0,N
1675015815.6,286046991.7,N
1675015835.5,286046992.2,N
1675015855.3,286046992.4,N
1675015875.1,286046992.7,N
1675015895.9,286046990.4,Y
1675015915.7,286046995.6,P
1675015935.5,286046997.9,P
1675015955.4,286046997.6,N
1675015975.2,286046997.9,N
1675015995.1,286046998.0,N
1675015996.0,286046998.0,N
1675016015.8,286046997.4,N
1675016035.6,286046996.7,Y
1675016055.5,286046998.3,P
1675016075.3,286046998.1,P
1675016095.2,286046998.8,N
1675016115.9,286046998.4,N
1675016135.7,286046998.2,Y
1675016155.6,286046999.8,P
1675016175.4,286047000.7,N
1675016195.2,286047000.0,N
1675016215.1,286047001.0,N
1675016216.0,286047001.0,N
1675016235.8,286047000.9,N
1675016255.7,286047002.5,N
1675016275.5,286047000.0,N
1675016295.3,286046999.8,N
1675016315.2,286047000.9,N
1675016335.0,286047000.2,N
1675016335.9,286047000.2,N
1675016355.7,286046999.9,N
1675016375.6,286047000.9,N
1675016395.4,286047001.2,N
1675016415.3,286047000.8,N
1675016435.1,286047001.1,N
1675016436.0,286047001.1,N
1675016455.8,286047000.7,N
1675016475.7,286046999.2,N
1675016495.5,286046996.9,Y
1675016515.4,286046999.1,P
1675016535.2,286046999.4,N
1675016555.0,286046998.3,N
1675016555.9,286046998.3,N
1675016575.8,286046999.2,N
1675016595.6,286046999.1,N
1675016615.4,286046997.1,Y
1675016665.3,286046998.8,E
1675016675.2,286047001.1,N
1675016695.1,286047000.1,P
1675016696.0,286047000.1,N
1675016715.8,286047011.9,Y
1675016735.7,286047000.0,P
1675016755.5,286047001.2,P
1675016775.3,286047000.8,N
1675016795.2,286046999.1,N
1675016815.0,286046999.4,N
1675016815.9,286046999.4,N
1675016835.7,286046996.5,Y
1675016855.6,286046999.2,P
1675016875.4,286046998.9,N
1675016895.3,286046998.8,N
1675016915.1,286046998.6,N
1675016935.8,286046998.3,Y
1675016955.7,286047001.2,P
1675016975.5,286047001.0,N
1675016995.4,286047000.5,N
1675017015.2,286047000.2,N
1675017035.0,286047002.4,Y
1675017035.9,286047002.4,P
1675017055.8,286047000.0,N
1675017075.6,286046999.9,N
1675017095.4,286047000.9,N
1675017115.3,286047000.5,N
1675017135.1,286047000.0,N
1675017155.9,286046998.5,N
1675017175.7,286046996.8,Y
1675017195.5,286046997.8,P
1675017215.4,286046996.8,N
1675017235.2,286046998.8,N
1675017255.0,286047001.2,N
1675017256.0,286047001.2,N
1675017275.8,286047001.2,N
1675017295.6,286047000.1,N
1675017315.5,286047000.4,N
1675017335.3,286047000.7,N
1675017355.1,286047000.9,N
1675017375.9,286046999.8,N
1675017395.7,286047002.7,N
1675017415.6,286047000.6,N
1675017435.4,286047000.1,N
1675017455.2,286047000.9,N
1675017475.1,286047000.8,N
1675017476.0,286047000.8,N
1675017495.8,286047000.2,N
1675017515.6,286047002.0,N
1675017535.5,286047002.7,N
1675017555.3,286047000.3,N
1675017575.2,286047000.1,N
1675017595.9,286047002.4,N
1675017615.7,286046999.7,N
1675017635.6,286047001.1,N
1675017655.4,286047000.3,N
1675017675.2,286047001.1,N
1675017695.1,286046998.3,N
1675017696.0,286046998.3,N
1675017715.8,286046998.8,N
1675017735.7,286046998.9,N
1675017755.5,286046999.1,N
1675017775.3,286046996.6,N
1675017795.2,286046999.2,N
1675017815.0,286046998.7,N
1675017815.9,286046998.7,N
1675017835.8,286046998.7,N
1675017855.6,286047000.1,N
1675017875.4,286047000.7,N
1675017895.3,286046999.9,N
1675017915.1,286047002.3,N
1675017935.9,286047011.9,Y
1675017955.7,286046999.8,P
1675017975.5,286047001.1,P
1675017995.4,286047002.5,P
1675018015.2,286047000.7,N
1675018035.0,286046998.3,N
1675018035.9,286046998.3,N
1675018055.8,286047000.5,N
1675018075.6,286046998.9,N
1675018095.5,286046996.6,N
1675018115.3,286046997.6,N
1675018135.1,286046995.8,N
1675018155.9,286046996.2,N
1675018175.7,286046995.4,N
1675018195.5,286046997.3,N
1675018215.4,286046999.4,N
1675018235.2,286046996.5,N
1675018255.1,286046996.7,N
1675018256.0,286046996.7,N
1675018275.8,286047000.6,N
1675018295.6,286046999.7,N
1675018315.5,286046999.5,N
1675018335.3,286046997.7,N
1675018355.1,286046997.3,N
1675018375.9,286046995.2,N
1675018395.7,286046995.0,N
1675018415.6,286046998.7,N
1675018435.4,286046999.3,N
1675018455.2,286046998.7,N
1675018475.1,286046999.3,N
1675018476.0,286046999.3,N
1675018495.8,286046997.3,N
1675018515.6,286046995.9,N
1675018535.5,286046995.7,N
1675018555.3,286046999.6,N
1675018575.2,286047000.5,N
1675018595.9,286047000.8,N
1675018615.7,286047002.4,N
1675018635.6,286047004.4,N
1675018655.4,286047003.0,N
1675018675.3,286047004.7,N
1675018695.1,286047004.1,N
1675018696.0,286047004.1,N
1675018715.8,286047003.5,N
1675018735.7,286047003.3,N
1675018755.5,286047003.1,N
1675018775.3,286047002.5,N
1675018795.2,286046999.8,N
